Regional Weather Roundup
Issued by NWS Cleveland, OH

Home | Current Version | Previous Version | Text Only | Print | Product List | Glossary Off
Versions: 1 2 3 4 5 6 7 8 9 10 11 12 13 14 15 16 17 18 19 20 21 22 23 24 25 26 27 28 29 30 31 32 33 34 35 36 37 38 39 40 41 42 43 44 45 46 47 48 49 50

857
ASUS41 KCLE 280912
RWRCLE
OHIO REGIONAL WEATHER ROUNDUP
NATIONAL WEATHER SERVICE WILMINGTON, OH
500 AM EDT TUE MAR 28 2017

NOTE: "FAIR" INDICATES FEW OR NO CLOUDS BELOW 12,000 FEET WITH NO
SIGNIFICANT WEATHER AND/OR OBSTRUCTIONS TO VISIBILITY.

OHZ001>008-015>018-024>027-034-035-043-044-281000-
   NORTHWEST OHIO

CITY           SKY/WX    TMP DP  RH WIND       PRES   REMARKS
DEFIANCE       CLOUDY    50  47  89 N8        29.90R
FINDLAY        LGT RAIN  53  49  86 MISG      29.86S FOG
TOLEDO EXPRESS CLOUDY    50  47  89 N8        29.89R
TOLEDO EXEC    CLOUDY    47  45  93 NE12G17   29.90R FOG
LIMA           LGT RAIN  52  52 100 N7        29.86R FOG
$$

OHZ009>014-019>023-028>033-038-089-281000-
   NORTHEAST OHIO

CITY           SKY/WX    TMP DP  RH WIND       PRES   REMARKS
CLE-HOPKINS    LGT RAIN  53  48  83 NE3       29.88R
CLE-LAKEFRONT  LGT RAIN  45  42  89 NE5       29.86R
CUY CO. ARPT   NOT AVBL
LORAIN-ELYRIA  LGT RAIN  50  46  86 N5        29.86S
ASHTABULA      LGT RAIN  48  48 100 CALM      29.87R
AKRON-CANTON   LGT RAIN  52  49  89 NE9       29.84S FOG
WOOSTER        LGT RAIN  52  50  93 NE9       29.84F FOG
MANSFIELD      LGT RAIN  52  51  97 N10       29.83F FOG
YOUNGSTOWN     LGT RAIN  51  49  92 E5        29.86F
$$

OHZ042-051>053-060>062-070>072-077>081-281000-
  SOUTHWEST OHIO

CITY           SKY/WX    TMP DP  RH WIND       PRES   REMARKS
CINC-COVINGTON CLOUDY    55  54  96 SW5       29.83S
CINC-LUNKEN    CLOUDY    56  56 100 S5        29.83S
HAMILTON       CLOUDY    57  57 100 CALM      29.83S
DAYTON         LGT RAIN  55  55 100 CALM      29.83S FOG
WRIGHT-PAT AFB MOCLDY    55  55 100 CALM      29.82F FOG
DAYTON GENERAL FOG       56  55  97 CALM      29.82S VSB 3/4
WILMINGTON     CLOUDY    55  55 100 CALM      29.82S
$$

OHZ036-037-039>041-045>050-054>059-063>069-073>076-082>088-281000-
  CENTRAL AND SOUTHEAST OHIO

CITY           SKY/WX    TMP DP  RH WIND       PRES   REMARKS
COLUMBUS       CLOUDY    57  56  96 SW3       29.82F FOG
OSU AIRPORT    LGT RAIN  55  55 100 W5        29.83S FOG
BOLTON FIELD   CLOUDY    55  55 100 CALM      29.84S FOG
RICKENBACK AFB RAIN      55  55 100 W3        29.83S
NEWARK         CLOUDY    57  55  93 SW6       29.82S
MARION         LGT RAIN  53  51  93 N7        29.85R FOG
LANCASTER      CLOUDY    58  55  90 W5        29.83S
ZANESVILLE     CLOUDY    57  53  86 SW6       29.83S
NEW PHILLY     CLOUDY    53  53 100 SE3       29.83F
$$




USA.gov is the U.S. government's official web portal to all federal, state and local government web resources and services.